Showing default

KONDOR FKA NO.2, 62138

Orbit data source: Space-Track

KONDOR FKA NO.2, 62138 is a payload satellite owned by NPO Mash (CIS) in SSO that was launched on Fri, 29 Nov 2024 UTC via a SOYUZ-2-1A launch vehicle from the Vostochny Cosmodrome (VOSTO). Payloads include a variety of satellites, spacecraft, and rockets equipped with specific instruments for various scientific and technological missions. These include communications satellites like Starlink; space stations such as the ISS; scientific satellites like the Hubble; Earth observation satellites from companies like Planet Labs, Umbra, and HawkEye 360; GPS; miniature CubeSats for education and research; and military/defense satellites.

Loading next visibility...
KONDOR FKA NO.2 details
Identifier
62138, 2024-223A
Orbit
SSO
Last TLE update7 hours ago
Origin
Flag of CISNPO Mash (CIS)
ManufacturerNPOMA?
MissionOperational spacecraft
Bus & MotorKONDOR, Unknown motor
Mass1,050 kg wet, 1,050 kg dry
Launch date (UTC)
2024-11-29 (1 month ago)
Launch vehicle
SOYUZ-2-1A
Launch site
Vostochny Cosmodrome (VOSTO)
Object type
Payload
Rocket body
Debris
Shape & HBRUnknown
Radar Cross SectionLarge (>1 m²)

Expand to show TLE details & history

TLE from 7 hours ago
0 KONDOR FKA NO.2
1 62138U 24223A   24361.12387362  .00010720  00000-0  51445-3 0  9993
2 62138  97.4389 201.4692 0002151  44.2377 315.9029 15.19047917  3985
Epoch: 2024-12-26T02:58Z
Definitive object data (Epoch: 2024-12-26T02:58:22.68Z)
Latitude-0.00006°
Longitude61.76693°
Altitude510.741 km
Speed7.609 km/s
True Right ascension13h 25m 52s
True Declination0° 00' 00"
Sunlit
Object was in daylight at TLE epoch
Visualization TLE readout
Latitude-52.87916°
Longitude-127.81045°
Altitude530.735 km
Speed7.595 km/s
Apparent Right ascension23h 06m 06s
Apparent Declination-48° 54' 19"
Sunlit
Object is in daylight
Visualization observer readout
Local Sidereal Time09:40:23
Azimuth232.329° WSW
Elevation-72.34°
Doppler factor1
Orbital elements
Apogee altitude507.166 km
Perigee altitude504.205 km
Semi-major axis6,883.822 km
Eccentricity0.0002151
Inclination97.4389°
RAAN201.4692°
Arg. of periapsis44.2377°
True anomaly315.88574°
Mean anomaly315.9029°
Eccentric anomaly315.89432°
Mean motion3.80013 °/min
BSTAR0.00051445
Orbital period94.73 mins
Loading maneuver chart data...
Loading historical data...
Loading historical data...
Loading historical data...
Loading historical data...
Loading historical data...
Loading historical data...
Loading historical data...
Other satellites on launch #223 in the year 2024 (2024-11-29 UTC)

KONDOR FKA NO.2 Visibility forecast

Observer location: undefined°, undefined

Span
Click to sort rows by Start time (UTC) header in descending order
Start Az.
Max El. time (UTC)
Max El. Az.
Max El.
End time (UTC)
End Az.
4 mins2024-12-26 14:11:13.991Z219.712° SW2024-12-26 14:12:13.991Z246.62° WSW27.753°2024-12-26 14:15:13.991Z321.34° NNW
4 mins2024-12-27 01:42:13.991Z66.825° ENE2024-12-27 01:43:13.991Z88.795° E19.889°2024-12-27 01:46:13.991Z144.993° SSE
|